Lid_Strength_Index
1 2 3 4 10 11 14 12 10 9 9 7 6 7 9 8 10 12 2 1 0 0 -0 -1 -1 -2 -2 -2 -2 -2 -1 -2 -2 -2 -2 -2 -2 -2 -2 -2 -2 -2 -2 -2 -2 -2 -2 -2 -2
2 1 4 6 13 16 14 10 10 8 7 6 6 6 8 10 5 4 3 1 0 -0 -0 -0 -1 -1 -2 -2 -2 -2 -1 -2 -2 -2 -2 -2 -2 -2 -2 -2 -2 -2 -2 -2 -2 -2 -2 -2 -1
4 2 7 10 12 15 13 10 9 8 6 7 8 6 7 8 5 4 2 1 0 -0 -0 -0 -1 -1 -2 -1 -1 -2 -2 -2 -2 -2 -2 -2 -2 -2 -2 -2 -2 -2 -2 -2 -2 -2 -2 -2 -2
6 7 7 12 13 10 10 9 8 8 7 6 6 9 6 3 4 2 2 0 0 0 -0 -0 -1 -1 -1 -1 -1 -1 -2 -2 -2 -1 -2 -2 -2 -2 -2 -2 -2 -2 -2 -2 -2 -2 -2 -1 -1
7 9 11 13 12 10 9 6 7 8 8 7 7 9 8 4 2 1 2 0 1 0 -0 -0 -1 -1 -1 -1 -1 -1 -2 -2 -2 -2 -2 -2 -2 -2 -2 -2 -2 -2 -2 -2 -2 -1 -1 -1 -0
9 10 14 14 12 9 9 7 7 8 8 7 7 8 7 3 2 2 2 1 1 0 -0 -0 1 -0 -1 -1 -1 -1 -2 -2 -2 -2 -2 -2 -2 -2 -2 -2 -2 -2 -2 -2 -1 -1 -1 -0 -0
10 11 14 13 11 10 9 7 8 8 8 7 6 9 7 4 2 2 2 2 0 -0 -0 -0 -0 0 1 -0 -0 -1 -1 -1 -2 -2 -2 -1 -1 -2 -2 -2 -2 -2 -1 -1 -1 -0 -0 -0 0
8 10 13 13 12 11 8 7 6 7 8 5 4 9 9 4 2 2 2 1 1 0 -0 0 0 -0 0 0 1 1 -0 -0 -1 -1 -1 -0 -1 -1 -1 -1 -1 -1 -0 0 1 1 1 1 0
6 12 14 12 11 9 7 8 7 5 7 6 5 6 4 2 2 3 3 2 2 1 0 0 0 0 0 1 1 1 1 0 0 0 1 1 1 1 1 0 -1 -2 -1 -0 1 1 1 0 0
8 12 12 9 9 9 8 7 7 8 7 8 7 4 3 3 3 4 4 4 3 2 1 0 0 1 1 -0 0 0 -0 0 0 1 1 1 1 1 1 1 -0 -1 -1 -1 -0 -1 -0 1 2
8 11 9 8 7 6 7 8 7 8 9 7 8 6 4 4 4 4 4 3 3 2 1 1 0 0 0 1 0 1 1 1 1 2 2 2 1 2 2 2 1 1 1 1 0 1 1 1 2
12 8 7 7 6 7 8 8 8 9 8 5 5 5 4 5 4 4 4 4 3 2 1 1 1 1 1 1 0 0 1 1 2 2 2 2 2 2 2 2 2 2 1 2 2 2 1 1 1
13 11 9 7 7 7 7 8 9 9 7 5 4 5 5 5 4 3 3 4 3 3 2 1 1 1 1 1 0 0 0 0 0 1 1 2 2 2 2 2 1 2 1 2 2 2 2 1 1
12 11 10 9 9 8 8 8 9 9 8 5 5 5 5 5 4 4 4 4 3 2 2 1 1 0 0 0 -0 -0 -0 -0 -0 0 1 1 2 2 2 2 2 2 2 2 2 2 2 2 1
12 14 12 11 9 9 7 10 10 7 7 8 6 6 5 5 4 4 3 3 3 2 1 1 1 0 1 0 0 -0 -0 -0 0 0 1 1 1 1 2 2 2 2 2 2 2 2 2 2 1
15 15 17 13 10 9 8 14 9 7 7 8 8 7 5 5 4 3 3 2 2 3 2 1 1 1 1 1 0 -0 -0 -0 -0 -0 1 1 1 1 2 2 2 2 2 2 2 2 2 2 2
17 20 19 16 12 12 9 13 8 6 7 7 7 8 7 5 4 3 3 2 2 3 2 1 1 1 2 1 0 -0 -0 -0 -0 -0 1 1 1 1 1 2 1 1 1 2 2 2 2 2 2
19 19 18 20 15 15 15 14 9 8 8 9 9 8 8 6 5 3 3 2 2 3 3 1 1 1 1 1 1 1 0 -0 0 0 1 1 0 1 1 1 1 1 1 2 2 2 2 1 1
16 17 18 17 15 15 16 16 14 13 13 13 11 9 8 6 4 3 3 2 2 3 4 2 2 1 1 1 1 1 2 1 1 1 1 1 1 0 1 1 1 1 1 1 1 1 1 1 1
16 17 17 15 12 15 17 18 17 15 13 13 13 12 10 9 6 4 3 3 2 2 3 3 2 2 1 1 1 1 1 1 1 2 1 1 1 1 1 1 1 1 1 1 1 1 2 1 1
15 17 16 16 14 14 16 19 17 15 13 13 12 11 10 10 9 8 4 3 3 3 3 3 2 2 1 1 1 1 1 1 1 2 1 1 1 1 1 1 1 1 1 1 1 1 1 3 2
15 11 13 15 16 19 15 24 18 16 16 15 13 12 12 10 8 8 6 4 3 3 2 2 2 2 2 2 2 2 2 3 2 1 1 1 1 0 0 1 1 1 1 1 1 1 1 2 3
13 10 12 14 16 17 17 21 21 15 16 15 13 12 11 10 9 8 7 4 3 3 2 2 3 2 2 2 2 2 2 2 1 2 2 1 1 -0 0 1 2 2 1 1 1 1 2 1 2
8 10 12 13 16 24 19 18 22 18 15 14 11 10 9 9 9 8 7 5 3 3 3 3 3 3 2 2 2 2 2 2 2 2 2 1 1 1 1 1 1 1 1 1 1 1 1 2 1
9 12 20 24 25 24 16 18 18 15 13 13 12 11 8 8 8 7 7 7 6 3 3 3 3 3 3 3 2 2 2 1 2 2 2 2 3 4 4 4 5 4 4 3 3 4 3 3 3
12 13 18 24 20 18 14 18 18 13 12 10 10 9 9 9 8 8 7 7 6 6 4 2 2 3 3 3 3 2 2 1 1 2 1 3 5 6 6 6 6 6 5 5 5 5 5 5 6
13 18 12 18 15 19 18 16 14 12 11 11 10 9 9 9 9 8 7 7 7 7 8 5 3 3 3 3 2 2 2 2 4 5 5 6 7 7 8 8 8 8 8 8 8 8 8 8 9
11 9 15 15 23 25 17 17 18 14 12 11 11 10 10 9 9 9 8 8 6 7 8 7 6 4 3 4 4 5 6 6 7 7 8 8 8 9 9 9 9 9 9 8 9 9 10 11 10
14 16 15 15 15 19 20 18 13 12 12 12 11 10 10 10 9 8 8 9 8 7 8 8 7 6 6 5 7 8 9 9 8 9 9 9 9 10 11 11 11 12 11 11 12 11 11 12 13
13 14 14 20 20 16 16 18 10 10 9 11 12 11 10 9 8 8 8 9 9 8 8 8 8 7 7 6 7 8 9 9 10 10 11 11 11 11 12 12 12 12 13 12 13 13 14 14 15